Location: Conflandey
(47.7287°N, 6.0456°E)
Time: 21:48:34
(UTC+00:00)

IRS-1C Rocket - Pass Details

Date: 24 October 2021
Orbit: 801 x 805 km, 98.9° (Epoch: 05 December)

Event Time Altitude Azimuth Distance (km) Brightness Sun altitude
Exits shadow 18:45:20 12° 170° (S) 2,266 6.3 -23.2°
Maximum altitude 18:50:19 75° 256° (WSW) 835 4.2 -24.0°
Drops below altitude 10° 18:55:37 10° 342° (NNW) 2,394 6.9 -24.9°
Sets 18:57:58 0° 344° (NNW) 3,330 7.6 -25.3°
